GW2652 Weather Reports


Display with metric or nautical units.
time (UTC)temp
F
wind
direction
speed
MPH
gust
MPH
rain 1hr
in
rain 24hr
in
rain mn
in
humidity
%
barometer
mb
20260901014719 65 172 0.0 0.0 0.12 0.29 0.29 99 1016.6
20260901014215 65 172 0.0 0.0 0.05 0.28 0.28 99 1016.3
20260901013710 65 172 0.0 0.0 0.12 0.27 0.27 99 1016.6
20260901013206 65 172 0.0 0.0 0.31 0.27 0.27 99 1016.3
20260901012701 65 172 0.0 0.0 0.24 0.25 0.25 99 1016.5
20260901012156 65 172 0.0 0.0 0.05 0.22 0.22 99 1016.5
20260901011651 65 172 0.0 0.0 0.07 0.21 0.21 99 1016.3
20260901011150 65 172 0.0 0.0 0.14 0.21 0.21 99 1016.4
20260901010639 65 172 0.0 0.0 0.07 0.20 0.20 99 1016.4
20260901010138 65 172 0.0 0.0 0.07 0.20 0.20 99 1016.3
20260901005632 65 172 0.0 0.0 0.00 0.19 0.19 99 1016.3
20260901005128 65 172 0.0 0.0 0.05 0.19 0.19 99 1016.4
20260901004627 65 172 0.0 0.0 0.05 0.19 0.19 99 1016.4
20260901004122 65 172 0.0 0.0 0.00 0.18 0.18 99 1016.3
20260901003617 65 172 0.0 0.0 0.00 0.18 0.18 99 1016.2
20260901003115 65 172 0.0 0.0 0.00 0.18 0.18 99 1016.2
20260901002610 65 172 0.0 0.0 0.00 0.18 0.18 99 1016.0
20260901002105 65 172 0.0 0.0 0.00 0.18 0.18 99 1016.0
20260901001600 65 172 0.0 0.0 0.00 0.18 0.18 99 1015.9
20260901001055 65 172 0.0 0.0 0.00 0.18 0.18 99 1015.9
20260901000549 65 172 0.0 0.0 0.00 0.18 0.18 99 1015.9
20260901000045 65 172 0.0 0.0 0.00 0.18 0.18 99 1016.0
20260831235538 65 172 0.0 0.0 0.00 0.18 0.18 99 1015.9
20260831235034 65 172 0.0 0.0 0.00 0.18 0.18 99 1016.2
20260831234528 65 172 0.0 0.0 0.00 0.18 0.18 99 1016.2
20260831234025 65 172 0.0 0.0 0.00 0.18 0.18 99 1015.9
20260831233520 65 172 0.0 0.0 0.07 0.18 0.18 99 1016.0
20260831233015 65 172 0.0 0.0 0.07 0.18 0.18 99 1016.0
20260831232510 65 172 0.0 0.0 0.00 0.17 0.17 99 1016.0
20260831232006 65 172 0.0 0.0 0.00 0.17 0.17 99 1016.3
20260831231502 65 172 0.0 0.0 0.00 0.17 0.17 99 1016.3
20260831230957 65 172 0.0 0.0 0.00 0.17 0.17 99 1016.2
20260831230453 65 172 0.0 0.0 0.00 0.17 0.17 99 1016.5
20260831225947 65 172 0.0 0.0 0.05 0.17 0.17 99 1016.5
20260831225443 65 172 0.0 0.0 0.05 0.17 0.17 99 1016.4
20260831224937 65 172 0.0 0.0 0.07 0.16 0.16 99 1016.5
20260831224431 65 172 0.0 0.0 0.07 0.16 0.16 99 1016.9
20260831223926 65 172 0.0 0.0 0.05 0.15 0.15 99 1016.7
20260831223422 65 172 0.0 0.0 0.12 0.15 0.15 99 1016.9
20260831222919 65 172 0.0 0.0 0.07 0.14 0.14 99 1017.0
20260831222414 65 172 0.0 0.0 0.05 0.13 0.13 99 1016.9
20260831221909 65 172 0.0 0.0 0.05 0.13 0.13 99 1017.1
20260831221404 65 172 0.0 0.0 0.00 0.12 0.12 99 1017.1
20260831220859 65 172 0.0 0.0 0.00 0.12 0.12 99 1016.9
20260831220349 65 172 0.0 0.0 0.07 0.12 0.12 99 1016.6
20260831215844 65 172 0.0 0.0 0.07 0.12 0.12 99 1017.2
20260831215340 65 172 0.0 0.0 0.00 0.11 0.11 99 1017.2
20260831214836 65 172 0.0 0.0 0.00 0.11 0.11 99 1017.1
20260831214333 65 172 0.0 0.0 0.05 0.11 0.11 99 1017.0
20260831213828 65 172 0.0 0.0 0.05 0.11 0.11 99 1017.3
20260831213325 65 172 0.0 0.0 0.00 0.10 0.10 99 1017.1
20260831212820 65 172 0.0 0.0 0.00 0.10 0.10 99 1017.2
20260831212317 65 172 0.0 0.0 0.07 0.10 0.10 99 1017.1
20260831211815 65 172 1.0 1.0 0.07 0.10 0.10 99 1017.1
20260831211310 65 172 0.0 0.0 0.00 0.09 0.09 99 1017.1
20260831210809 65 172 0.0 0.0 0.00 0.09 0.09 99 1017.1
20260831210301 65 185 0.0 0.0 0.00 0.09 0.09 99 1017.0
20260831205800 65 185 0.0 0.0 0.00 0.09 0.09 99 1017.2
20260831205257 65 222 0.0 0.0 0.00 0.09 0.09 99 1017.1
20260831204756 65 176 0.0 0.0 0.00 0.09 0.09 99 1017.2
20260831204255 65 176 0.0 0.0 0.00 0.09 0.09 99 1017.1
20260831203755 65 176 0.0 0.0 0.00 0.09 0.09 99 1017.3
20260831203249 65 175 0.0 0.0 0.00 0.09 0.09 99 1017.3
20260831202748 65 175 0.0 0.0 0.00 0.09 0.09 99 1017.1
20260831202242 65 175 0.0 0.0 0.00 0.09 0.09 99 1017.1
20260831201737 65 175 0.0 0.0 0.00 0.09 0.09 99 1017.2
20260831201236 65 174 0.0 0.0 0.05 0.09 0.09 99 1017.5
20260831200732 65 174 0.0 0.0 0.05 0.09 0.09 99 1017.4
20260831200231 65 175 0.0 0.0 0.00 0.08 0.08 99 1017.3
20260831195727 65 175 0.0 0.0 0.00 0.08 0.08 99 1017.3
20260831195223 65 175 0.0 0.0 0.00 0.08 0.08 99 1017.6
20260831194718 65 175 0.0 0.0 0.00 0.08 0.08 99 1017.8
20260831194214 65 175 0.0 0.0 0.00 0.08 0.08 99 1017.6
20260831193707 65 175 0.0 0.0 0.00 0.08 0.08 99 1017.6
20260831193203 65 175 0.0 0.0 0.00 0.08 0.08 99 1017.7
20260831192658 65 171 0.0 0.0 0.00 0.08 0.08 99 1017.7
20260831192153 65 171 0.0 1.0 0.00 0.08 0.08 99 1017.6
20260831191649 64 198 1.0 1.0 0.00 0.08 0.08 99 1017.9
20260831191144 65 196 0.0 0.0 0.00 0.08 0.08 99 1017.6
20260831190639 65 269 2.0 2.0 0.00 0.08 0.08 99 1017.7
20260831190138 65 275 0.0 1.0 0.00 0.08 0.08 99 1017.8
20260831185634 65 167 0.0 1.0 0.00 0.08 0.08 99 1017.9
20260831185130 65 166 0.0 0.0 0.00 0.08 0.08 99 1018.0
20260831184629 65 186 0.0 0.0 0.00 0.08 0.08 99 1018.1
20260831184125 66 143 0.0 0.0 0.00 0.08 0.08 99 1018.1
20260831183624 65 143 0.0 0.0 0.00 0.08 0.08 99 1018.3
20260831183123 65 175 0.0 0.0 0.00 0.08 0.08 99 1018.1
20260831182623 65 202 0.0 1.0 0.00 0.08 0.08 99 1018.4
20260831182119 66 196 0.0 0.0 0.00 0.08 0.08 99 1018.2
20260831181614 66 179 0.0 0.0 0.00 0.08 0.08 99 1018.3
20260831181113 66 206 0.0 0.0 0.07 0.08 0.08 99 1018.2
20260831180609 66 132 0.0 0.0 0.07 0.08 0.08 99 1018.6
20260831180104 67 132 0.0 0.0 0.00 0.07 0.07 99 1018.3
20260831175559 66 132 1.0 1.0 0.00 0.07 0.07 99 1018.5
20260831175056 66 132 0.0 0.0 0.00 0.07 0.07 99 1018.5
20260831174551 66 132 0.0 0.0 0.07 0.07 0.07 99 1018.6
20260831174050 66 132 0.0 0.0 0.07 0.07 0.07 99 1018.8
20260831173549 66 132 0.0 0.0 0.12 0.06 0.06 99 1019.1
20260831173045 66 132 0.0 0.0 0.12 0.06 0.06 99 1018.8
20260831172540 66 132 0.0 0.0 0.07 0.05 0.05 99 1018.8
20260831172035 66 132 0.0 0.0 0.00 0.04 0.04 99 1018.9
20260831171530 65 132 0.0 0.0 0.05 0.04 0.04 99 1019.1
20260831171027 65 132 0.0 0.0 0.12 0.04 0.04 99 1019.0
20260831170523 65 132 0.0 0.0 0.12 0.03 0.03 98 1019.0
20260831170021 65 132 0.0 1.0 0.05 0.02 0.02 98 1019.1
20260831165520 65 132 0.0 0.0 0.07 0.01 0.01 99 1018.6
20260831165017 65 131 0.0 0.0 0.07 0.01 0.01 99 1019.2
20260831164513 65 131 1.0 1.0 0.00 0.00 0.00 99 1018.9
20260831164008 65 131 0.0 0.0 0.00 0.00 0.00 98 1019.3
20260831163508 65 131 0.0 0.0 0.00 0.00 0.00 97 1019.6
20260831163004 65 131 0.0 0.0 0.00 0.00 0.00 98 1019.5
20260831162458 65 131 0.0 0.0 0.00 0.00 0.00 96 1019.5
20260831161955 65 131 0.0 0.0 0.00 0.00 0.00 96 1019.4
20260831161453 65 131 0.0 0.0 0.00 0.00 0.00 96 1019.4
20260831160948 65 131 0.0 0.0 0.00 0.00 0.00 96 1019.4
20260831160447 65 131 0.0 0.0 0.00 0.00 0.00 96 1019.6
20260831155947 65 131 0.0 0.0 0.00 0.00 0.00 96 1019.5
20260831155442 65 131 0.0 0.0 0.00 0.00 0.00 96 1019.5
20260831154938 65 132 0.0 0.0 0.00 0.00 0.00 95 1019.5
20260831154434 65 131 0.0 0.0 0.00 0.00 0.00 95 1019.6
20260831153933 65 132 0.0 0.0 0.00 0.00 0.00 95 1019.5
20260831153428 65 132 0.0 0.0 0.00 0.00 0.00 95 1019.4
20260831152925 65 132 0.0 0.0 0.00 0.00 0.00 95 1019.3
20260831152420 65 131 0.0 0.0 0.00 0.00 0.00 96 1019.5
20260831151915 65 132 0.0 0.0 0.00 0.00 0.00 96 1019.7
20260831151414 65 131 0.0 0.0 0.00 0.00 0.00 95 1019.6
20260831150910 65 131 0.0 0.0 0.00 0.00 0.00 96 1019.1
20260831150405 64 131 0.0 1.0 0.00 0.00 0.00 97 1019.1
20260831145904 65 131 0.0 0.0 0.00 0.00 0.00 97 1019.1
20260831145401 65 131 1.0 1.0 0.00 0.00 0.00 94 1019.2
20260831144856 65 132 1.0 1.0 0.00 0.00 0.00 94 1019.1
20260831144352 65 132 1.0 2.0 0.00 0.00 0.00 95 1018.9
20260831143846 65 132 0.0 0.0 0.00 0.00 0.00 95 1019.1
20260831143342 64 132 0.0 0.0 0.00 0.00 0.00 96 1019.2
20260831142837 64 132 0.0 0.0 0.00 0.00 0.00 97 1019.1
20260831142332 64 132 0.0 0.0 0.00 0.00 0.00 97 1019.2
20260831141832 63 132 0.0 0.0 0.00 0.00 0.00 98 1019.5
20260831141327 63 132 0.0 0.0 0.00 0.00 0.00 98 1019.6
20260831140822 63 132 0.0 0.0 0.00 0.00 0.00 97 1019.3
20260831140316 64 132 0.0 0.0 0.00 0.00 0.00 97 1019.6
20260831135814 64 132 0.0 0.0 0.00 0.00 0.00 97 1019.5
20260831135310 64 132 0.0 0.0 0.00 0.00 0.00 98 1019.5
20260831134805 64 132 0.0 0.0 0.00 0.00 0.00 98 1019.4
20260831134301 63 132 0.0 0.0 0.00 0.00 0.00 99 1019.5
20260831133800 63 132 0.0 0.0 0.00 0.00 0.00 99 1019.3
20260831133255 62 132 0.0 0.0 0.00 0.00 0.00 99 1019.3
20260831132750 62 132 0.0 0.0 0.00 0.00 0.00 99 1019.4
20260831132245 62 131 0.0 0.0 0.00 0.00 0.00 99 1019.2
20260831131744 62 131 0.0 0.0 0.00 0.00 0.00 99 1019.4
20260831131241 62 131 0.0 0.0 0.00 0.00 0.00 99 1019.7
20260831130736 62 131 0.0 0.0 0.00 0.00 0.00 99 1019.3
20260831130231 61 131 0.0 0.0 0.00 0.00 0.00 99 1019.5
20260831125729 61 131 0.0 0.0 0.00 0.00 0.00 99 1019.7
20260831125226 61 132 0.0 0.0 0.00 0.00 0.00 99 1019.7
20260831124720 60 132 0.0 0.0 0.00 0.00 0.00 99 1019.6
20260831124217 60 132 0.0 0.0 0.00 0.00 0.00 99 1019.3
20260831123716 60 131 0.0 0.0 0.00 0.00 0.00 99 1019.4
20260831123215 60 131 0.0 0.0 0.00 0.00 0.00 99 1019.3
20260831122710 59 131 0.0 0.0 0.00 0.00 0.00 99 1019.5
20260831122206 59 131 0.0 0.0 0.00 0.00 0.00 99 1019.5
20260831121705 59 131 0.0 0.0 0.00 0.00 0.00 99 1019.5
20260831121202 59 131 0.0 0.0 0.00 0.00 0.00 99 1019.8
20260831120657 58 131 0.0 0.0 0.00 0.00 0.00 99 1019.8
20260831120151 58 131 0.0 0.0 0.00 0.00 0.00 99 1019.8
20260831115647 58 131 0.0 0.0 0.00 0.00 0.00 99 1019.6
20260831115142 58 131 0.0 0.0 0.00 0.00 0.00 99 1019.5
20260831114641 57 131 0.0 0.0 0.00 0.00 0.00 99 1019.4
20260831114136 57 131 0.0 0.0 0.00 0.00 0.00 99 1019.4
20260831113631 57 131 0.0 0.0 0.00 0.00 0.00 99 1019.7
20260831113126 57 131 0.0 0.0 0.00 0.00 0.00 99 1019.5
20260831112625 57 131 0.0 0.0 0.00 0.00 0.00 99 1019.4
20260831112120 56 131 0.0 0.0 0.00 0.00 0.00 99 1019.6
20260831111616 56 131 0.0 0.0 0.00 0.00 0.00 99 1019.5
20260831111112 56 131 0.0 0.0 0.00 0.00 0.00 99 1019.4
20260831110607 56 131 0.0 0.0 0.00 0.00 0.00 99 1019.4
20260831105601 55 131 0.0 0.0 0.00 0.00 0.00 99 1019.1
20260831105056 55 132 0.0 0.0 0.00 0.00 0.00 99 1019.2
20260831104552 55 132 0.0 0.0 0.00 0.00 0.00 99 1019.2
20260831104048 55 132 0.0 0.0 0.00 0.00 0.00 99 1019.1
20260831103543 55 132 0.0 0.0 0.00 0.00 0.00 99 1019.0
20260831103039 55 132 0.0 0.0 0.00 0.00 0.00 99 1019.0
20260831102533 55 132 0.0 0.0 0.00 0.00 0.00 99 1019.1
20260831102028 55 132 0.0 0.0 0.00 0.00 0.00 99 1018.9
20260831101523 54 132 0.0 0.0 0.00 0.00 0.00 99 1018.9
20260831101019 54 132 0.0 0.0 0.00 0.00 0.00 99 1018.8
20260831100515 54 132 0.0 0.0 0.00 0.00 0.00 99 1018.8
20260831100011 54 132 0.0 0.0 0.00 0.00 0.00 99 1018.9
20260831095509 54 132 0.0 0.0 0.00 0.00 0.00 99 1018.5
20260831095004 54 132 0.0 0.0 0.00 0.00 0.00 99 1018.8
20260831094500 54 132 0.0 0.0 0.00 0.00 0.00 99 1018.4
20260831093955 54 132 0.0 0.0 0.00 0.00 0.00 99 1018.8
20260831093450 54 132 0.0 0.0 0.00 0.00 0.00 99 1018.8
20260831092947 54 132 0.0 0.0 0.00 0.00 0.00 99 1018.8
20260831092442 54 132 0.0 0.0 0.00 0.00 0.00 99 1019.0
20260831091937 54 132 0.0 0.0 0.00 0.00 0.00 99 1018.9
20260831091433 54 132 0.0 1.0 0.00 0.00 0.00 99 1018.9
20260831090927 54 132 0.0 0.0 0.00 0.00 0.00 99 1018.6
20260831090424 54 132 0.0 0.0 0.00 0.00 0.00 99 1018.8
20260831085920 54 132 0.0 0.0 0.00 0.00 0.00 99 1018.9
20260831085415 54 132 0.0 0.0 0.00 0.00 0.00 99 1018.8
20260831084914 54 132 0.0 0.0 0.00 0.00 0.00 99 1019.0
20260831084410 55 132 0.0 0.0 0.00 0.00 0.00 99 1018.5
20260831083906 55 132 0.0 0.0 0.00 0.00 0.00 99 1019.0
20260831083401 54 132 0.0 0.0 0.00 0.00 0.00 99 1018.9
20260831082900 54 132 0.0 0.0 0.00 0.00 0.00 99 1018.6
20260831082400 54 132 0.0 0.0 0.00 0.00 0.00 99 1018.6
20260831081856 53 132 0.0 0.0 0.00 0.00 0.00 99 1018.9
20260831081351 53 132 0.0 0.0 0.00 0.00 0.00 99 1018.6
20260831080847 53 131 0.0 0.0 0.00 0.00 0.00 99 1019.1
20260831080342 54 131 0.0 0.0 0.00 0.00 0.00 99 1018.9
20260831075838 54 131 1.0 1.0 0.00 0.00 0.00 99 1018.8
20260831075332 53 131 0.0 0.0 0.00 0.00 0.00 99 1018.6
20260831074828 53 131 0.0 0.0 0.00 0.00 0.00 99 1018.6
20260831074327 53 131 0.0 0.0 0.00 0.00 0.00 99 1018.6
20260831073823 53 131 0.0 0.0 0.00 0.00 0.00 99 1018.6
20260831073321 53 131 0.0 0.0 0.00 0.00 0.00 99 1018.6
20260831072817 53 131 0.0 0.0 0.00 0.00 0.00 99 1018.6
20260831072313 53 131 0.0 0.0 0.00 0.00 0.00 99 1018.5
20260831071808 53 131 0.0 0.0 0.00 0.00 0.00 99 1018.5
20260831071257 54 131 0.0 0.0 0.00 0.00 0.00 99 1018.5
20260831070756 53 131 0.0 0.0 0.00 0.00 0.00 99 1018.8
20260831070255 53 131 0.0 0.0 0.00 0.00 0.00 99 1018.8
20260831065755 53 131 0.0 0.0 0.00 0.00 0.00 99 1018.5
20260831065253 54 131 0.0 0.0 0.00 0.00 0.00 99 1018.8
20260831064749 54 131 0.0 0.0 0.00 0.00 0.00 99 1018.9
20260831064243 54 131 0.0 0.0 0.00 0.00 0.00 99 1018.8
20260831063740 54 131 0.0 0.0 0.00 0.00 0.00 99 1018.8
20260831063239 54 131 0.0 0.0 0.00 0.00 0.00 99 1018.5
20260831062734 54 131 0.0 0.0 0.00 0.00 0.00 99 1018.6
20260831062229 55 131 0.0 0.0 0.00 0.00 0.00 99 1018.8
20260831061727 55 131 0.0 0.0 0.00 0.00 0.00 99 1019.0
20260831061222 55 131 0.0 0.0 0.00 0.00 0.00 99 1019.1
20260831060718 55 131 0.0 0.0 0.00 0.00 0.00 99 1019.2
20260831060213 55 131 0.0 0.0 0.00 0.00 0.00 99 1019.4
20260831055712 55 131 0.0 0.0 0.00 0.00 0.00 99 1019.3
20260831055207 55 131 0.0 0.0 0.00 0.00 0.00 99 1019.0
20260831054702 55 131 0.0 0.0 0.00 0.00 0.00 99 1019.0
20260831054201 55 131 0.0 0.0 0.00 0.00 0.00 99 1019.2
20260831053655 56 131 0.0 0.0 0.00 0.00 0.00 99 1019.2
20260831053154 56 131 0.0 0.0 0.00 0.00 0.00 99 1019.2
20260831052649 56 131 0.0 0.0 0.00 0.00 0.00 99 1019.1
20260831052148 56 131 0.0 0.0 0.00 0.00 0.00 99 1019.4
20260831051646 56 131 0.0 0.0 0.00 0.00 0.00 99 1019.4
20260831051144 56 131 0.0 0.0 0.00 0.00 0.00 99 1019.3
20260831050639 56 131 0.0 0.0 0.00 0.00 0.00 99 1019.0
20260831050139 56 131 0.0 0.0 0.00 0.00 0.00 99 1019.3
20260831045638 57 131 0.0 0.0 0.00 0.00 0.00 99 1019.1
20260831045133 57 131 0.0 0.0 0.00 0.00 0.00 99 1019.1
20260831044628 57 131 0.0 0.0 0.00 0.00 0.00 99 1019.3
20260831044124 57 131 0.0 0.0 0.00 0.00 0.00 99 1019.2
20260831043619 57 131 0.0 0.0 0.00 0.00 0.00 99 1019.1
20260831043114 58 131 0.0 0.0 0.00 0.00 0.00 99 1019.2
20260831042613 58 131 0.0 0.0 0.00 0.00 0.00 99 1019.4
20260831042103 58 131 0.0 0.0 0.00 0.00 0.00 99 1019.4
20260831041558 58 131 0.0 0.0 0.00 0.00 0.00 99 1018.9
20260831041057 58 131 0.0 0.0 0.00 0.00 0.00 99 1019.1
20260831040551 59 131 0.0 0.0 0.00 0.00 0.00 99 1019.1
20260831040046 58 131 0.0 0.0 0.00 0.00 0.00 99 1018.9
20260831035543 58 131 0.0 0.0 0.00 0.00 0.00 99 1019.1
20260831035039 58 131 0.0 0.0 0.00 0.00 0.00 99 1019.1
20260831034538 59 131 0.0 0.0 0.00 0.00 0.00 99 1019.3
20260831034034 59 131 0.0 0.0 0.00 0.00 0.00 99 1019.3
20260831033529 59 131 0.0 0.0 0.00 0.00 0.00 99 1019.3
20260831033025 59 131 0.0 0.0 0.00 0.00 0.00 99 1019.2
20260831032524 59 131 0.0 0.0 0.00 0.00 0.00 99 1019.2
20260831032020 59 131 0.0 0.0 0.00 0.00 0.00 99 1019.0
20260831031519 59 131 0.0 0.0 0.00 0.00 0.00 99 1019.1
20260831031018 59 131 0.0 0.0 0.00 0.00 0.00 99 1019.2
20260831030518 59 131 0.0 0.0 0.00 0.00 0.00 99 1018.9
20260831030017 60 131 0.0 0.0 0.00 0.00 0.00 99 1019.0
20260831025510 60 132 0.0 0.0 0.00 0.00 0.00 99 1018.9
20260831025005 60 131 0.0 0.0 0.00 0.00 0.00 99 1019.3
20260831024501 60 131 0.0 0.0 0.00 0.00 0.00 99 1019.2
20260831024000 60 131 0.0 0.0 0.00 0.00 0.00 99 1019.3
20260831023458 61 131 0.0 0.0 0.00 0.00 0.00 99 1019.1
20260831022953 61 131 0.0 0.0 0.00 0.00 0.00 99 1019.2
20260831022452 61 132 0.0 0.0 0.00 0.00 0.00 99 1019.0
20260831021947 61 132 0.0 0.0 0.00 0.00 0.00 99 1019.3
20260831021446 62 132 0.0 0.0 0.00 0.00 0.00 99 1019.3
20260831020942 62 132 0.0 0.0 0.00 0.00 0.00 99 1019.2
20260831020437 62 132 0.0 0.0 0.00 0.00 0.00 99 1019.3
20260831015931 62 132 0.0 0.0 0.00 0.00 0.00 99 1019.0
20260831015428 62 132 0.0 0.0 0.00 0.00 0.00 99 1019.1
20260831014922 63 132 0.0 0.0 0.00 0.00 0.00 99 1019.2